Location: Orange
(40.7703°N, 74.2325°W)
Time: 08:48:01
(UTC+00:00)

BlueWalker 3 - Visible Passes

Search period start: 04 December 2022 00:00
Search period end: 14 December 2022 00:00
Orbit: 501 x 519 km, 53.2° (Epoch: 03 December)

Date Brightness Start Highest point End Pass type
(mag) Time Alt. Az. Time Alt. Az. Time Alt. Az.
04 Dec 4.1 23:24:30 10° NNW 23:26:02 16° N 23:26:02 16° N visible
05 Dec 3.7 23:06:05 10° NNW 23:08:30 18° N 23:08:30 18° N visible
06 Dec 3.5 22:47:40 10° NNW 22:50:34 19° NNE 22:51:01 19° NNE visible
07 Dec 3.5 22:29:15 10° NNW 22:32:12 20° NNE 22:33:39 17° NE visible
08 Dec 4.4 00:07:27 10° NW 00:08:29 18° NW 00:08:29 18° NW visible
08 Dec 3.5 22:10:49 10° NNW 22:13:49 21° NNE 22:16:25 12° ENE visible
08 Dec 3.4 23:49:02 10° NW 23:51:16 33° NW 23:51:16 33° NW visible
09 Dec 2.0 23:30:37 10° NW 23:34:14 75° WNW 23:34:14 75° WNW visible
10 Dec 1.9 23:12:12 10° NW 23:16:06 81° SW 23:17:28 39° SE visible
11 Dec 2.1 22:53:47 10° NW 22:57:41 76° SW 23:01:05 13° SE visible
12 Dec 2.2 22:35:21 10° NW 22:39:14 70° SW 22:43:05 10° SE visible
13 Dec 2.4 22:16:55 10° NW 22:20:48 65° SW 22:24:38 10° SE visible
